N2XP Weather Reports


time (UTC)temp
C
wind
direction
speed
KPH
gust
KPH
rain 1hr
cm
rain 24hr
cm
rain mn
cm
humidity
%
barometer
mb
20260505211519 25 233 3.2 22.5 0.00 0.00 0.00 39 1005.3
20260505210018 26 223 3.2 40.2 0.00 0.00 0.00 37 1005.0
20260505204519 26 252 1.6 29.0 0.00 0.00 0.00 37 1004.8
20260505203016 26 180 3.2 25.7 0.00 0.00 0.00 39 1005.1
20260505201521 27 252 4.8 35.4 0.00 0.00 0.00 36 1005.2
20260505200015 27 194 3.2 29.0 0.00 0.00 0.00 37 1005.3
20260505194528 27 211 3.2 19.3 0.00 0.00 0.00 39 1005.2
20260505193031 27 190 4.8 20.9 0.00 0.00 0.00 39 1005.5
20260505191511 27 242 4.8 32.2 0.00 0.00 0.00 37 1005.8
20260505190010 27 219 6.4 25.7 0.00 0.00 0.00 40 1005.8
20260505184507 27 246 4.8 33.8 0.00 0.00 0.00 37 1005.9
20260505183007 27 192 3.2 27.4 0.00 0.00 0.00 37 1005.9
20260505181504 27 221 12.9 38.6 0.00 0.00 0.00 38 1006.3
20260505180058 27 221 6.4 32.2 0.00 0.00 0.00 43 1006.3
20260505174608 27 187 8.0 29.0 0.00 0.00 0.00 42 1006.6
20260505173049 27 192 3.2 17.7 0.00 0.00 0.00 45 1006.7
20260505171548 27 137 4.8 17.7 0.00 0.00 0.00 45 1006.9
20260505170108 26 152 8.0 22.5 0.00 0.00 0.00 45 1007.0
20260505164543 26 220 1.6 19.3 0.00 0.00 0.00 50 1007.3
20260505163044 26 202 4.8 12.9 0.00 0.00 0.00 47 1007.4
20260505161543 26 231 3.2 14.5 0.00 0.00 0.00 47 1007.6
20260505153035 25 237 4.8 19.3 0.00 0.00 0.00 52 1008.2
20260505151529 24 217 3.2 16.1 0.00 0.00 0.00 54 1008.3
20260505124531 16 207 3.2 19.3 0.00 0.00 0.00 76 1008.9
20260505123049 15 217 1.6 8.0 0.00 0.00 0.00 81 1008.6
20260505121523 14 205 1.6 12.9 0.00 0.00 0.00 84 1008.5
20260505120026 13 208 1.6 9.7 0.00 0.00 0.00 89 1008.6
20260505114516 13 210 0.0 8.0 0.00 0.00 0.00 91 1008.8
20260505113034 12 213 0.0 8.0 0.00 0.00 0.00 94 1009.0
20260505111544 11 205 0.0 4.8 0.00 0.00 0.00 93 1008.9
20260505101518 10 206 0.0 0.0 0.00 0.00 0.00 88 1008.8
20260505100018 10 234 0.0 3.2 0.00 0.00 0.00 86 1008.9
20260505094517 10 234 0.0 6.4 0.00 0.00 0.00 86 1008.6
20260505093014 10 238 0.0 0.0 0.00 0.00 0.00 86 1008.3
20260505091514 10 238 0.0 0.0 0.00 0.00 0.00 86 1008.1
20260505090013 10 238 0.0 0.0 0.00 0.00 0.00 85 1007.9
20260505084517 10 238 0.0 0.0 0.00 0.00 0.00 85 1007.8
20260505083015 10 238 0.0 0.0 0.00 0.00 0.00 84 1007.9
20260505081516 10 238 0.0 4.8 0.00 0.00 0.00 84 1008.0
20260505080028 10 238 0.0 0.0 0.00 0.00 0.00 85 1007.9
20260505074510 9 238 0.0 0.0 0.00 0.00 0.00 84 1007.9
20260505073012 10 238 0.0 0.0 0.00 0.00 0.00 83 1007.9
20260505071507 10 238 0.0 0.0 0.00 0.00 0.00 83 1007.8
20260505070006 10 238 0.0 0.0 0.00 0.00 0.00 82 1007.9
20260505064502 10 238 0.0 0.0 0.00 0.00 0.00 80 1008.0
20260505063100 10 238 0.0 0.0 0.00 0.00 0.00 80 1008.0
20260505061558 11 238 0.0 0.0 0.00 0.00 0.00 78 1008.1
20260505054603 11 238 0.0 6.4 0.00 0.00 0.00 77 1008.2
20260505053110 11 239 0.0 3.2 0.00 0.00 0.00 76 1008.2
20260505051555 11 239 0.0 3.2 0.00 0.00 0.00 76 1008.2
20260505041609 11 220 0.0 0.0 0.00 0.00 0.00 74 1008.4
20260505040046 11 220 0.0 0.0 0.00 0.00 0.00 74 1008.4
20260505034547 11 220 0.0 0.0 0.00 0.00 0.00 74 1008.4
20260505033042 11 220 0.0 0.0 0.00 0.00 0.00 73 1008.6
20260505031543 12 220 0.0 0.0 0.00 0.00 0.00 72 1008.7
20260505030044 12 220 0.0 0.0 0.00 0.00 0.00 71 1008.7
20260505024545 12 220 0.0 0.0 0.00 0.00 0.00 72 1008.7
20260505023045 12 220 0.0 0.0 0.00 0.00 0.00 70 1008.7
20260505021544 12 220 0.0 0.0 0.00 0.00 0.00 68 1008.8
20260505020038 13 220 0.0 0.0 0.00 0.00 0.00 66 1008.7
20260505014542 13 220 0.0 0.0 0.00 0.00 0.00 66 1008.6
20260505013036 13 220 0.0 0.0 0.00 0.00 0.00 64 1008.6
20260505011536 14 220 0.0 0.0 0.00 0.00 0.00 63 1008.5
20260505010041 15 220 0.0 0.0 0.00 0.00 0.00 60 1008.2
20260505004535 15 220 0.0 0.0 0.00 0.00 0.00 58 1008.2
20260505003033 16 220 0.0 0.0 0.00 0.00 0.00 56 1008.0
20260505001545 17 220 0.0 0.0 0.00 0.00 0.00 53 1007.9
20260505000039 17 220 0.0 6.4 0.00 0.00 0.00 51 1007.6
20260504234533 18 204 0.0 16.1 0.00 0.00 0.00 50 1007.4
20260504233031 18 229 4.8 14.5 0.00 0.00 0.00 48 1007.2
20260504231541 18 229 0.0 11.3 0.00 0.00 0.00 46 1007.0
20260504230030 19 201 1.6 14.5 0.00 0.00 0.00 45 1006.9
20260504224535 20 214 0.0 8.0 0.00 0.00 0.00 46 1006.8
20260504223028 20 215 1.6 17.7 0.00 0.00 0.00 43 1007.0
20260504221527 20 227 0.0 16.1 0.00 0.00 0.00 42 1006.9
20260504220030 20 213 1.6 12.9 0.00 0.00 0.00 43 1007.0
20260504214525 20 215 1.6 11.3 0.00 0.00 0.00 42 1007.1
20260504213023 20 248 0.0 11.3 0.00 0.00 0.00 42 1007.3